CAPE
408 345 243 175 126 188 223 136 37 127 182 171 40 420 556 1128 1381 1369 1213 1146 1189 1371 1752 899 656 718 554 388 337 645 438 118 453 3 0 364 290 428 642 692 932 1060 1367 1616 1754 1950 2207 2501 2927 2913 3082 3033 2985 3065 3091 3206 3360 3337 3415 3364 3312 3366 3333 3120 3044 2951 2953 2981 2951 2938 2985 2933 2900 2881 2910 2934 2959 2794 2708 2736 2628 2636 2605 2563 2568 2488 2634 2506 2506 2577 2597 2622 2565 2526 2463 2388 2352
450 397 394 104 48 340 152 334 52 2 144 236 56 867 1102 1136 938 1153 1042 1330 1773 951 846 1179 794 1177 781 761 417 341 277 589 1038 472 221 272 376 588 743 886 1058 1168 1362 1669 1782 1980 2009 2516 2895 3029 3034 2978 2982 3029 3180 3258 3227 3370 3488 3393 3440 3307 3280 3159 2944 2898 2887 2988 3083 2972 2935 2872 2948 3015 2954 2910 2906 2731 2664 2649 2600 2599 2526 2604 2469 2331 2390 2249 2779 2636 2542 2515 2312 2266 2321 2426 2455
504 529 405 732 248 419 443 330 261 29 62 2 16 946 1250 1256 959 1330 1441 1055 1055 709 1028 1099 1190 1006 730 576 412 502 155 759 901 314 492 447 534 644 803 942 1150 1248 1434 1610 1813 2051 2203 2460 2881 3293 2930 3025 2990 3082 3188 3316 3534 3551 3342 3374 3331 3277 3156 3028 2952 2929 2944 2911 2892 2887 2883 2875 3173 3136 2925 2852 2800 2721 2826 2673 2595 2576 2383 2214 2332 2320 2420 2270 2759 2920 2671 2593 2418 2303 2452 2512 2553
514 441 381 365 174 450 463 343 435 266 193 129 57 853 1045 1054 1455 1492 1317 970 590 783 1061 1291 945 752 831 850 458 509 343 457 327 337 381 431 430 733 896 1030 1393 1263 1421 1581 1952 2123 2268 2383 3042 3382 3029 3006 2909 3180 3197 3348 3438 3440 3323 3335 3285 3279 3177 3262 3133 3075 2966 2913 2862 2827 2876 2616 2761 2888 2798 2793 2885 2900 3024 2834 2521 2305 2498 2343 2404 2440 2337 2475 2691 2729 2748 2630 2542 2541 2338 2320 2197
609 123 485 556 472 609 433 681 543 300 438 75 149 703 1080 1233 1572 1138 684 915 286 701 973 1051 646 726 709 504 494 370 421 334 328 371 370 493 683 905 953 1142 1158 1238 1413 1608 1957 2142 2293 2759 3123 3236 3062 2973 2945 3171 3348 3449 3399 3346 3260 3118 3239 3127 3257 3309 3152 3094 3082 3047 2934 2939 3017 3029 2748 2636 2629 2766 2900 2700 2476 2714 2691 2446 2532 2382 2464 2562 2545 2599 2624 2329 2705 2546 2375 2326 2351 2454 2258
675 588 357 681 809 953 807 515 475 430 458 728 473 492 1138 972 1207 1010 1106 1046 1048 827 582 994 718 870 726 507 570 793 438 283 352 381 416 615 869 1002 1107 1175 1102 1202 1388 1591 1889 2137 2342 3032 2970 3204 3016 2993 3115 3225 3406 3284 3256 3246 3184 3152 3202 3138 3203 3248 3171 3049 3004 2814 2873 2555 2650 2848 2965 2772 2776 2620 2857 2689 2688 2639 2539 2572 2600 2631 2437 2396 2547 2622 2343 2270 2570 2465 2545 2655 2651 2614 2495
642 731 739 754 751 857 740 292 10 298 782 734 560 1142 1701 1438 1436 992 736 654 540 640 672 733 622 722 778 660 372 406 502 376 400 373 599 745 986 1103 1082 1000 1040 1116 1291 1533 1839 2073 2446 3028 2994 3208 3012 2995 3146 3292 3225 3200 3210 3122 3238 3124 3170 3100 3062 3008 2950 2855 3113 3041 2790 2725 2744 2708 2584 2819 2796 2824 2724 2641 2454 2446 2553 2400 2440 2234 2318 2248 2584 2612 2502 2503 2448 2599 2511 2542 2502 2508 2336
842 921 725 692 658 569 522 498 294 601 875 588 879 1272 1428 957 1168 908 524 499 532 610 556 572 538 680 515 518 456 463 553 631 581 707 709 871 1078 1054 929 936 968 1011 1155 1483 1790 2066 2689 2899 3068 3161 3140 2995 3190 3200 3182 3138 3151 3191 3217 3185 3164 3110 3185 3135 2978 3000 2972 3085 3066 3126 2794 2747 2875 2888 2902 2950 3001 2686 2716 2618 2394 2405 2336 2279 2760 2338 2698 2719 2619 2627 2415 2232 2457 2380 2390 2354 2347
739 941 1106 872 669 410 329 180 239 678 621 750 631 1255 1321 880 975 801 570 605 530 672 528 498 439 412 406 444 515 639 734 844 789 785 762 984 1040 928 902 907 942 960 1027 1406 1774 2128 2695 2796 3049 3196 3118 3060 3139 3116 3103 3165 3120 3221 3246 3132 3080 3113 3137 3015 2924 2984 2828 2816 2886 3009 2906 2923 3002 3005 2878 2817 2809 2842 2743 2642 2449 2390 2214 2212 2166 2178 2388 2650 2363 2166 2352 2571 2691 2674 2594 2472 2551
1201 945 878 480 424 182 51 10 0 50 523 1066 1294 1540 1314 851 1052 1305 655 534 508 541 442 334 352 370 404 398 443 698 829 806 711 718 883 968 938 888 904 932 987 1065 1120 1342 1801 2246 2674 2846 3077 3172 3191 3045 3115 3075 3170 3242 3258 3192 3088 3198 3126 3082 2858 2985 2952 2862 2794 2638 2743 2925 2588 2716 2683 2916 2711 2722 2748 2819 2790 2442 2772 2625 2123 2289 2480 2626 2666 2742 2821 2842 2746 2649 2677 2718 2776 2644 2692
1125 816 840 783 338 0 5 68 40 220 390 863 1086 1354 1970 884 1081 1172 848 565 386 536 432 402 383 373 453 538 611 718 804 735 697 806 895 922 866 887 935 988 1124 1252 1357 1542 1897 2405 2790 2684 2950 3113 3130 3122 3149 3105 3320 3361 3292 3076 3042 3125 3018 2837 2820 2887 2853 2728 2768 2627 2782 2829 2742 2530 2610 2742 2737 2774 2758 2752 2815 2845 2482 2604 2516 2545 2508 2578 2602 2558 2643 2708 2767 2893 2823 2647 2589 2260 2600
1183 904 827 577 80 95 41 152 181 389 856 1117 932 1224 1552 811 994 814 687 562 579 506 584 535 521 494 533 624 563 734 678 678 739 808 869 822 852 957 998 1153 1407 1522 1642 1822 2212 2475 2677 2730 2633 2949 3112 3102 3107 3145 3371 3313 3198 3016 3043 3045 2859 2796 2865 2893 2787 2769 2729 2681 2740 2784 2674 2666 2696 2732 2756 2850 2899 2890 2909 2964 3057 3046 2969 2963 2820 2774 2729 2781 2987 3037 3174 3065 2938 2673 2472 2540 2594
970 603 736 468 50 165 170 405 190 400 290 438 724 944 1062 980 776 672 642 596 636 590 542 629 466 526 454 549 650 569 619 645 736 823 764 765 935 1054 1233 1458 1639 1813 1944 2160 2322 2505 2602 2713 2665 2857 2937 2952 2966 3098 3197 3272 3109 2955 3004 2906 2761 2795 2892 2881 2855 2827 2555 2520 2701 2812 2862 2822 2852 2802 2819 2950 3036 2913 3020 2943 2924 3030 3068 3107 2475 2738 2866 3039 3002 3169 3177 3228 2920 2736 2693 2367 2278
927 756 755 597 240 376 320 443 225 12 9 349 1215 796 985 1070 1026 710 980 628 572 620 569 630 670 619 630 555 620 450 569 629 764 756 670 790 1023 1260 1502 1614 1824 2015 2171 2240 2349 2500 2583 2660 2616 2583 2711 2649 2619 2834 3015 3259 3110 3051 2886 2778 2786 2805 2820 2873 2870 2658 2463 2530 2738 2849 2844 2988 3012 3057 2957 2945 2968 3031 3043 3027 3059 2993 3065 3251 3268 3134 3005 3018 3002 3172 2959 2902 3106 2793 2715 2669 2660
860 771 793 499 428 495 340 385 386 74 10 574 1091 1112 1121 1634 933 855 993 636 585 507 478 478 671 431 502 577 509 406 541 667 725 628 638 844 1182 1488 1616 1713 1918 2109 2200 2266 2349 2475 2549 2592 2556 2554 2501 2492 2470 2654 2752 3218 3180 3110 3089 2674 2759 2805 2764 2831 2923 2523 2504 2612 2836 2935 3050 3067 3044 3099 3198 3163 3100 2976 2948 3008 2930 2886 3001 3252 3229 3243 3236 3306 3233 3143 3034 3138 3110 2720 2678 2815 2781
531 676 680 490 294 134 67 82 116 54 6 379 876 885 964 956 670 511 796 1596 729 640 496 755 532 717 477 522 410 400 554 680 655 546 620 938 1388 1634 1694 1776 1966 2106 2160 2256 2346 2439 2501 2553 2484 2522 2475 2418 2440 2553 2750 3010 3018 3296 3188 2925 2683 2752 2816 2894 2863 2625 2562 2706 2920 2964 3057 3300 3113 2996 3278 3094 3020 3052 2968 2736 2850 2973 3016 3060 3188 3012 2974 2726 3066 3214 3178 2950 2659 2562 2594 2699 2779
486 598 749 527 293 154 123 4 1 5 4 501 843 726 742 703 524 484 602 519 697 717 544 646 766 628 555 417 426 502 586 684 552 526 666 1047 1503 1639 1697 1735 1879 2030 2155 2238 2331 2408 2480 2463 2428 2445 2353 2380 2672 2618 2669 2980 3278 3501 3316 3010 3082 2907 2806 2852 2760 2711 2723 2804 2864 2898 3056 3228 3130 3092 2868 2982 2882 3407 2714 2716 2908 2998 2850 2954 3067 2667 2515 2534 2275 2373 2286 2391 2665 2450 2260 2190 2499
569 724 655 532 447 277 156 5 0 0 121 521 657 438 453 614 486 470 507 518 709 637 583 682 626 597 471 360 504 536 634 646 538 572 705 1086 1466 1589 1592 1583 1711 1801 2053 2226 2332 2384 2412 2383 2385 2330 2352 2552 2805 2705 2696 2925 3142 3308 3159 2732 2970 2795 2727 2685 2795 2746 2784 2887 2877 2927 3005 3374 2726 2688 2744 2887 3507 2865 2763 3003 2965 2992 2836 2895 3232 2767 2592 2305 1991 2077 2306 2500 2633 2537 3050 2996 2953
487 720 719 574 368 336 226 125 10 105 144 572 538 404 444 486 468 452 456 572 748 704 582 659 548 470 352 446 569 620 632 575 593 631 725 1098 1369 1414 1397 1416 1487 1644 1902 2112 2273 2344 2318 2325 2316 2350 2390 2603 2774 2723 2748 2852 2984 3054 3135 2854 2833 3022 2924 3006 2635 3282 2866 2739 2720 2804 3053 3020 2554 2485 2744 3355 3233 3315 3204 2962 3020 2986 3022 2761 3158 2994 2665 2602 1740 2135 2276 2703 2368 2456 3397 2803 2542
511 554 634 576 500 138 29 22 69 68 170 495 472 448 347 424 447 432 452 630 768 594 588 584 605 543 427 489 618 667 646 581 718 692 800 1101 1290 1324 1284 1285 1309 1480 1693 1911 2153 2272 2258 2242 2222 2355 2418 2585 2640 2679 2761 2841 2872 2908 3020 2856 2746 2791 2761 2874 2590 2942 2840 2677 2739 2737 2666 2810 2715 2476 3420 3064 2915 3315 3063 3826 2939 2977 2717 3092 3136 3472 3402 3042 2780 3083 2796 2556 3308 3828 2947 2861 2703
495 479 548 554 457 409 242 62 84 131 289 442 384 409 351 415 448 450 481 672 720 519 614 596 644 541 446 490 643 688 638 645 801 799 885 1061 1219 1268 1230 1207 1202 1330 1578 1748 1994 2159 2179 2138 2137 2280 2401 2527 2509 2564 2682 2791 2830 2863 2892 2794 2812 2830 2939 2906 2696 2971 2869 2748 2740 2711 2633 2737 2848 2565 2442 2876 3160 2792 2647 2380 2597 2778 2954 2971 3934 3118 2874 2917 3587 2996 2873 3538 2903 2726 2620 2664 2795
313 506 588 542 17 202 241 97 66 117 288 431 286 340 356 363 451 460 501 640 655 636 657 574 637 588 507 474 622 660 615 734 841 871 937 1031 1210 1238 1210 1154 1120 1242 1477 1618 1817 2022 2094 2070 2071 2162 2273 2366 2326 2389 2530 2749 2834 2826 2850 2848 2840 2851 2964 2980 2761 2950 2902 2743 2754 2715 2834 2645 2861 2760 2426 2644 2936 2977 2526 2149 2412 2522 2718 2872 3435 3081 2734 2845 3054 2954 2806 2917 3004 2741 2510 2521 2451
176 0 34 220 197 41 80 66 18 189 363 318 276 276 215 279 392 319 390 646 746 741 668 627 661 645 547 494 540 571 603 764 867 895 959 1018 1168 1222 1230 1121 1067 1142 1383 1451 1662 1872 1997 2004 2000 2078 2136 2199 2187 2215 2334 2617 2697 2752 2794 2856 2830 2792 2897 3028 2849 2866 2908 2771 2751 2778 2796 2605 2665 2785 2607 2525 2750 2904 2889 2056 2044 2272 2444 2501 2983 2929 2702 2746 2594 2669 2393 2327 2438 2562 2580 2436 2396
39 1 8 6 1 37 48 10 28 10 10 242 238 216 156 221 411 364 398 458 744 802 697 566 685 657 605 596 556 620 659 816 907 894 982 1062 1137 1246 1246 1117 987 1052 1243 1270 1516 1729 1906 1927 1936 1987 2008 2014 2027 2117 2178 2408 2518 2581 2649 2799 2812 2724 2768 2918 2867 2836 2878 2784 2754 2743 2948 2537 2443 2702 2667 2549 2649 2686 2729 2376 1671 1965 2175 2540 2917 2959 2630 2518 2462 2603 2498 2056 2243 2316 2229 2169 2128
51 51 0 3 3 0 0 0 0 96 116 120 171 179 132 66 261 394 370 376 558 720 756 632 692 677 656 652 656 681 700 850 950 958 1031 1074 1137 1258 1260 1099 950 946 1074 1124 1366 1565 1800 1853 1852 1887 1895 1883 1887 1946 2032 2206 2340 2397 2454 2627 2678 2659 2716 2796 2820 2732 2749 2742 2609 2563 2896 2520 2256 2504 2644 2453 2511 2606 2583 2469 2040 2174 2314 2584 2704 2787 2531 2498 2374 2010 2298 2603 2618 2496 2230 1869 1749
0 0 34 12 4 0 0 0 0 0 75 56 55 104 102 66 19 128 263 371 402 650 729 675 687 666 652 656 651 691 763 896 1008 1086 1098 1070 1154 1216 1269 1137 947 853 906 987 1205 1407 1665 1778 1777 1759 1749 1778 1729 1780 1852 2013 2130 2189 2219 2317 2468 2666 2621 2637 2722 2608 2540 2592 2573 2505 2465 2570 2200 2203 2456 2419 2348 2525 2555 2489 2134 2104 2192 2460 2699 2485 2116 2305 2300 1698 1954 2403 2729 2440 1870 1815 2240
0 0 0 0 0 0 0 0 0 0 1 0 15 7 37 19 24 401 298 570 540 620 661 670 727 691 640 589 620 687 789 896 1025 1124 1112 1066 1072 1158 1277 1178 912 775 764 857 1058 1238 1525 1668 1681 1674 1600 1588 1518 1528 1630 1744 1843 1884 1894 2035 2122 2272 2358 2368 2469 2389 2198 2316 2354 2493 2453 2578 2409 2249 2256 2288 2295 2399 2359 2409 2354 2342 2310 2482 2523 2074 1816 2107 2099 2079 1986 2228 2188 1750 1610 1465 2743
0 0 0 0 0 0 0 0 0 0 0 0 0 0 0 23 24 9 613 642 626 673 681 720 746 719 691 663 718 776 811 876 978 1088 1129 1105 1093 1116 1246 1233 1045 742 677 774 963 1161 1407 1528 1586 1605 1529 1485 1361 1324 1391 1424 1519 1482 1534 1633 1756 1882 1997 2001 2014 2132 1986 1906 2082 2231 2455 2483 2579 2373 2292 2114 2208 2293 2116 2171 2328 2496 2473 2509 2181 1500 1561 1692 2181 2178 2124 2154 2330 1985 1826 1840 2556
0 0 0 0 0 0 0 0 0 0 6 0 1 0 0 2 24 135 724 637 630 696 711 726 748 749 747 745 801 860 880 880 938 1004 1088 1110 1116 1109 1241 1252 1136 841 653 732 918 1209 1309 1406 1456 1524 1458 1429 1317 1189 1166 1120 1186 1197 1185 1223 1254 1456 1619 1716 1736 1702 1633 1686 1881 2116 2277 2417 2461 2416 2320 2080 2563 2176 2085 1885 2093 2352 2502 2486 1945 1663 1652 1680 2273 2883 2718 3408 2767 2473 2080 1732 2007
0 0 0 0 0 0 0 0 0 0 0 0 0 5 0 0 2 589 787 651 610 666 735 747 754 752 762 776 819 885 930 934 951 978 1012 1049 1092 1118 1209 1254 1200 946 690 721 906 1149 1279 1315 1364 1405 1384 1365 1329 1137 1034 892 876 900 930 931 936 1117 1305 1415 1493 1556 1465 1379 1794 2064 2201 2272 2363 2374 2315 2160 1922 2014 2026 1816 1860 2118 2323 2228 2017 1859 1802 1993 2171 2594 2560 2590 2925 3523 2874 1894 1704
0 0 0 0 0 0 0 0 0 10 0 0 0 0 0 0 42 736 750 690 598 630 714 766 756 764 757 727 750 830 899 947 969 981 992 1011 1050 1084 1146 1218 1213 1086 742 729 908 1102 1320 1229 1296 1310 1413 1316 1390 1156 1019 800 630 638 694 774 767 854 1118 1208 1232 1375 1463 1424 1660 1947 2133 2205 2315 2306 2234 2072 1904 1824 1889 1792 1795 1830 1981 2034 1928 1922 2387 2475 2425 2365 2670 1864 1830 1811 1942 2144 2220
0 0 0 0 0 0 0 0 0 8 0 3 0 0 0 0 235 738 739 706 631 582 644 724 758 762 747 711 693 743 804 859 902 942 944 950 1010 1077 1107 1171 1177 1103 906 752 888 1074 1211 1187 1255 1220 1270 1238 1310 1205 1070 877 395 280 452 937 681 716 891 1081 1134 1225 1381 1456 1471 1803 1990 2138 2408 2342 2163 1932 1658 1717 1762 1747 1643 1698 1846 2077 1771 2377 3048 2807 2449 2009 2726 2311 1918 1793 2541 1737 1173
0 0 0 0 0 0 0 0 0 0 0 0 0 0 0 3 424 717 718 694 624 585 588 620 663 696 726 708 691 719 756 780 805 854 883 910 959 1017 1077 1129 1137 1110 976 756 867 1043 1164 1166 1398 1158 1170 1170 1259 1236 1150 1045 764 122 266 726 749 674 712 1007 1137 1167 1231 1352 1620 1731 1876 2060 2360 2374 2184 1813 1665 1694 1676 1594 1666 1768 2178 2199 1841 2685 3199 2994 2222 2573 2468 2809 2006 1821 1846 1172 489
0 0 0 0 0 0 0 0 0 0 0 0 0 0 0 14 630 727 713 668 611 568 551 562 578 588 625 660 630 695 743 751 760 787 842 882 925 986 1026 1066 1086 1076 919 743 819 993 1116 1142 1213 1138 1104 1083 1188 1220 1173 1130 1023 703 178 604 1104 800 775 964 1164 1132 1183 1471 1681 1754 1823 2003 2135 2357 2346 2052 1739 1584 1536 1569 1638 1866 2434 2450 2148 2535 2993 2663 1881 2419 2170 2419 2146 2094 1873 939 5
0 0 0 0 0 0 0 0 0 0 0 0 0 0 0 110 659 700 722 674 617 572 545 578 561 542 536 562 533 564 651 664 674 712 808 872 932 976 997 997 1008 981 915 759 766 903 1024 1076 1140 1119 1047 1029 1093 1152 1146 1112 1041 933 199 655 1023 1093 962 964 1179 1198 1234 1519 1763 1822 1834 1992 2049 2186 2253 2108 1746 1792 1603 1742 1828 1952 2672 2482 2368 2478 2916 2645 2615 2387 2369 2141 2392 2559 2226 314 0
0 0 0 0 0 0 0 0 0 0 0 0 0 0 0 123 662 669 685 681 634 606 571 548 529 483 471 487 490 525 607 638 636 644 751 833 937 1004 1006 982 998 976 915 769 752 824 912 986 1086 1100 1047 996 1017 1121 1155 1106 1060 955 804 773 1115 1242 1110 1029 1156 1371 1341 1407 1725 1810 1815 1978 1866 2066 2202 2175 1937 2102 1810 1852 1949 2171 2704 2455 2357 2669 2920 2601 2355 2284 2267 2108 1927 1583 409 0 0
0 0 0 0 0 0 0 0 0 0 0 0 0 0 3 120 623 671 664 662 636 614 618 587 530 474 425 416 447 496 579 643 633 656 772 809 902 1001 1021 1006 1013 964 901 830 782 783 828 904 1002 1074 1050 982 952 1110 1202 1154 1106 1036 1052 828 1040 1298 1282 1131 1154 1247 1319 1450 1589 1762 1770 1890 1839 1899 2176 2154 2104 2551 1961 1943 2080 2417 2680 2470 2284 2485 2621 2403 2232 2036 2306 2712 1763 1068 300 0 0
0 0 0 0 0 0 0 0 0 0 0 0 0 0 15 71 464 662 665 637 620 619 641 618 578 524 478 428 449 478 548 607 642 633 714 837 868 964 1012 1032 1059 1004 946 869 784 811 819 844 912 1012 1020 975 938 1073 1215 1244 1164 1107 1118 966 1026 1353 1470 1325 1233 1208 1309 1679 1776 1789 1763 1788 1852 1811 2214 2032 2051 2174 2070 2074 2112 2437 2700 2600 2445 2391 2460 2494 2969 2143 2508 2175 2246 1250 646 27 0
0 0 0 0 0 0 0 0 0 0 0 0 0 4 9 49 246 528 652 609 607 611 631 635 614 566 534 487 506 508 526 584 645 651 654 765 848 912 1006 1043 1084 1068 1031 960 883 796 793 789 841 884 935 961 946 995 1160 1270 1252 1181 1174 1027 970 1307 1572 1492 1362 1326 1360 1654 1826 1850 1858 1761 1822 1884 2080 2072 1979 1990 2059 2036 2101 2357 2706 2722 2573 2566 2513 2742 2615 2287 2269 2023 1598 1691 1884 556 0
0 0 0 0 0 0 0 0 0 0 0 0 0 0 1 44 127 335 539 558 576 585 602 599 580 567 529 515 532 555 546 570 622 676 690 698 736 816 908 987 1081 1097 1082 1023 957 866 860 946 912 886 960 975 980 965 1232 1220 1291 1286 1233 1150 963 1082 1423 1580 1579 1443 1298 1535 1795 1882 1934 1939 1824 1972 2020 2117 2018 1888 2026 2019 2022 2288 2603 2610 2487 2521 2537 2535 2370 2342 2271 2052 1397 1170 1184 74 702
0 0 0 0 0 0 0 0 0 0 0 0 0 0 9 8 75 111 185 397 470 509 555 560 535 512 488 463 488 543 576 578 613 667 677 705 744 760 850 901 986 1066 1105 1093 1042 972 948 964 1042 996 1018 1017 1028 1142 1170 1148 1261 1300 1358 1333 1120 1103 1276 1444 1552 1446 1387 1408 1615 1844 1949 2044 1946 1975 2033 2109 2094 1954 1905 2016 2078 2221 2539 2535 2522 2445 2454 2376 2382 2318 2341 2065 1512 1016 852 0 274
0 0 0 0 0 0 0 0 0 0 0 0 0 0 0 4 14 14 51 73 204 387 462 514 510 497 451 386 412 491 554 555 593 656 680 693 741 774 825 844 897 984 1069 1126 1105 1069 1040 1027 1121 1148 1150 1071 1045 1061 1123 1125 1215 1287 1336 1344 1256 1123 1207 1325 1487 1557 1514 1503 1446 1706 1902 2057 2059 1976 2036 2077 2135 2006 1842 1875 2235 2323 2422 2484 2519 2401 2360 2402 2472 2489 2412 2148 1717 1307 859 40 0
0 0 0 0 0 0 0 0 0 0 0 0 0 0 0 0 8 2 5 41 78 131 162 419 483 483 442 396 380 453 523 532 513 600 661 679 741 784 812 850 867 913 996 1099 1158 1119 1104 1085 1122 1250 1302 1227 1108 1068 1122 1245 1160 1215 1268 1262 1213 1116 1148 1241 1404 1516 1558 1538 1476 1592 1856 2018 2074 2024 2029 2042 2094 2120 1902 1756 2100 2528 2536 2537 2512 2422 2442 2507 2535 2570 2486 2080 1890 1543 1234 530 0
0 0 0 0 0 0 0 0 0 0 0 0 0 0 0 0 0 0 4 23 34 16 17 158 246 412 446 391 269 416 491 535 523 546 610 656 720 772 808 810 831 870 917 1001 1141 1180 1145 1125 1118 1247 1385 1414 1279 1184 1134 1220 1158 1183 1218 1242 1204 1143 1103 1192 1278 1383 1443 1478 1477 1618 1764 1966 2059 2059 2059 2046 2046 2080 2022 1826 1898 2438 2671 2713 2687 2538 2545 2583 2638 2623 2547 2426 2080 1833 1376 1038 282
0 0 0 0 0 0 0 0 0 0 0 0 0 0 0 0 0 0 3 11 11 18 7 27 82 124 402 254 254 404 455 502 520 519 580 662 692 750 781 795 799 820 854 926 1043 1163 1176 1150 1142 1184 1366 1469 1411 1318 1266 1181 1246 1176 1200 1225 1212 1198 1176 1174 1214 1266 1320 1354 1451 1690 1793 1919 2023 2055 2056 2087 2064 2045 2136 1955 1877 2109 2532 2757 2914 2785 2652 2638 2645 2656 2575 2538 2284 2034 1589 1202 1154
0 0 0 0 0 0 0 0 0 11 16 0 0 0 0 0 0 0 0 1 22 65 68 40 23 62 288 378 381 396 448 484 493 482 490 602 658 699 740 744 754 798 832 872 949 1056 1130 1156 1132 1126 1253 1436 1482 1431 1319 1198 1255 1244 1191 1192 1166 1198 1201 1207 1211 1237 1250 1289 1381 1582 1816 1929 2013 2043 2048 2098 2097 2089 2107 2083 1983 1978 2152 2531 2934 2990 2836 2646 2604 2581 2561 2445 2274 2089 1740 1393 1299
0 0 0 0 0 0 0 0 0 17 7 0 0 0 0 0 0 0 0 24 122 119 99 48 17 25 154 259 353 398 436 480 496 480 454 500 599 658 698 728 723 716 755 819 893 962 1034 1101 1130 1121 1157 1324 1440 1485 1447 1272 1244 1270 1215 1178 1144 1139 1180 1227 1214 1235 1225 1236 1311 1401 1715 1900 2020 2047 2044 2078 2119 2108 2096 2144 2160 2112 2090 2362 2770 2963 2901 2740 2620 2600 2561 2468 2349 2157 1854 1503 1410
0 0 0 0 0 0 0 0 0 0 0 0 0 0 0 0 0 0 0 38 46 78 98 82 27 21 38 50 92 332 426 462 482 472 454 457 522 626 678 705 692 672 682 763 865 909 953 1011 1042 1074 1085 1208 1344 1398 1406 1385 1310 1270 1209 1171 1142 1115 1131 1163 1180 1189 1238 1203 1200 1264 1480 1792 1986 2052 2060 2078 2107 2103 2088 2134 2226 2290 2329 2376 2510 2753 2872 2865 2794 2732 2636 2539 2465 2231 1954 1594 1539
0 0 0 0 0 0 0 0 0 0 0 0 0 0 0 0 0 0 0 15 72 84 76 72 44 34 51 59 89 162 359 452 472 467 473 469 480 549 632 670 667 669 678 710 837 894 931 967 986 1005 1027 1137 1257 1314 1362 1386 1353 1286 1219 1162 1145 1130 1120 1123 1118 1092 1120 1136 1106 1108 1245 1655 1860 2011 2049 2072 2084 2090 2080 2086 2168 2311 2401 2518 2541 2669 2792 2854 2882 2858 2776 2609 2555 2355 2051 1783 1599
0 0 0 0 0 0 0 0 0 0 0 0 0 0 0 0 0 0 0 1 70 55 46 31 37 55 140 146 96 154 308 427 501 498 487 494 485 486 504 575 623 648 661 689 818 877 919 952 965 961 998 1101 1240 1285 1358 1364 1311 1259 1224 1176 1147 1151 1136 1104 1098 1069 1036 1006 947 941 1015 1400 1691 1868 1959 1986 2035 2095 2085 2066 2096 2228 2359 2518 2658 2738 2811 2840 2906 2930 2942 2745 2604 2522 2258 1971 1683
0 0 0 0 0 0 0 0 0 0 0 0 0 0 0 0 0 0 0 0 0 20 46 25 4 28 138 148 168 186 320 429 526 548 544 528 511 502 493 413 545 591 612 648 780 860 895 934 961 960 974 1063 1204 1283 1339 1371 1346 1291 1255 1211 1182 1166 1161 1141 1104 1056 1004 927 865 845 859 1133 1464 1712 1848 1897 1945 2058 2105 2086 2094 2167 2317 2492 2677 2772 2841 2891 2914 2985 3018 2918 2637 2575 2447 2158 1835
0 0 0 0 0 0 0 0 0 0 0 0 0 0 0 0 0 0 0 0 0 0 7 16 0 0 31 125 164 209 360 444 537 609 613 584 553 557 564 534 432 344 572 605 733 832 870 928 954 976 991 1034 1168 1270 1328 1373 1359 1321 1300 1263 1226 1186 1158 1131 1100 1044 988 916 880 843 806 901 1250 1494 1718 1817 1850 1963 2070 2104 2100 2173 2256 2400 2590 2713 2786 2847 2900 2966 3014 2987 2832 2706 2568 2310 2024
0 0 0 0 0 0 0 0 0 0 0 0 0 0 0 0 0 0 0 0 0 0 0 0 6 4 4 31 78 203 346 466 556 646 685 674 646 633 626 597 479 361 565 605 680 794 855 901 958 995 1012 1034 1130 1249 1317 1355 1369 1334 1302 1281 1236 1185 1132 1108 1067 1020 1003 964 928 886 853 810 1050 1333 1550 1715 1784 1828 1980 2060 2098 2162 2264 2338 2462 2627 2725 2779 2851 2910 2973 2954 2864 2830 2729 2511 2217
0 0 0 0 0 0 0 0 0 0 0 0 0 0 0 0 0 0 0 0 0 0 0 0 5 14 19 40 86 145 268 459 566 661 740 755 740 722 679 652 585 566 410 563 654 705 815 875 927 984 1026 1054 1102 1206 1286 1339 1355 1344 1308 1276 1262 1206 1159 1121 1072 1016 1000 1040 974 960 932 902 932 1210 1429 1654 1756 1812 1881 2184 2049 2114 2237 2347 2400 2498 2611 2683 2713 2754 2818 2860 2881 2802 2734 2607 2465
0 0 0 0 0 0 0 0 0 0 0 0 0 0 0 0 0 0 0 0 0 0 0 0 2 10 30 60 85 157 226 398 554 674 750 789 826 806 765 709 644 613 614 642 661 691 769 831 894 942 1003 1034 1084 1169 1263 1308 1347 1349 1324 1292 1265 1250 1199 1147 1095 1009 891 1126 1095 996 963 1069 1024 1148 1432 1610 1748 1800 1847 1945 2016 2060 2173 2307 2400 2443 2513 2580 2589 2606 2640 2745 2851 2827 2651 2572 2521
0 0 0 0 0 0 0 0 0 0 0 0 0 0 0 0 0 0 0 0 0 0 0 0 0 5 23 63 107 163 324 410 518 644 746 830 868 879 845 781 704 660 660 677 686 699 708 794 865 904 941 1002 1042 1116 1202 1263 1301 1322 1311 1294 1286 1275 1254 1195 1111 1005 892 996 1256 1156 979 1089 1238 1242 1444 1609 1743 1774 1819 1884 1990 2048 2108 2209 2321 2419 2482 2526 2558 2546 2557 2614 2726 2824 2756 2605 2546
0 0 0 0 0 0 0 0 0 0 0 0 0 0 0 0 0 0 0 0 0 0 0 0 0 4 15 59 127 206 328 420 495 598 718 824 873 888 876 825 744 680 685 722 742 738 726 720 851 906 918 978 1030 1060 1116 1178 1213 1251 1259 1262 1265 1262 1261 1212 1136 1015 913 900 1076 1343 1290 1148 1276 1450 1523 1682 1774 1819 1841 1855 1953 2028 2058 2107 2174 2304 2428 2496 2531 2530 2522 2538 2592 2695 2757 2692 2570
0 0 0 0 0 0 0 0 0 0 0 0 0 0 0 0 0 0 0 0 0 0 0 0 0 4 2 45 127 212 339 411 495 584 677 759 828 891 893 854 792 750 722 739 764 768 775 759 827 924 932 968 1025 1059 1093 1137 1149 1171 1206 1199 1214 1230 1237 1215 1141 1044 952 985 976 1161 1440 1440 1327 1479 1698 1784 1847 1888 1890 1879 1891 1984 2030 2058 2108 2176 2302 2427 2475 2500 2495 2483 2512 2596 2650 2665 2547
Wind_Speed
11 9 4 6 6 7 7 9 nan 7 10 12 nan 12 16 14 16 14 15 13 12 11 11 14 4 7 11 10 7 7 13 7 12 nan nan 7 7 8 4 5 6 4 2 2 3 3 2 3 7 9 8 9 9 8 8 7 6 4 3 3 4 4 4 4 5 5 4 3 2 1 1 1 1 3 4 4 5 5 5 4 4 3 4 4 2 3 2 2 2 2 3 4 5 5 3 1 1
9 6 5 6 nan 10 9 8 nan nan 9 11 nan 14 16 14 14 16 14 14 13 11 11 10 7 7 10 2 4 2 10 10 9 7 6 3 5 4 6 6 6 5 1 2 2 2 4 4 6 8 8 8 8 8 8 6 5 3 3 4 4 4 4 4 4 4 3 2 2 2 1 1 2 3 4 5 5 6 5 5 4 4 3 4 3 1 1 2 1 3 3 4 5 4 4 2 2
7 8 5 7 9 13 8 9 10 nan nan nan nan 15 15 16 16 15 14 14 9 8 7 5 3 5 7 6 3 7 10 6 1 1 1 6 7 7 8 8 5 4 1 3 2 3 5 5 6 6 8 8 8 8 7 6 4 3 4 4 4 4 4 4 4 3 3 3 3 2 1 1 2 3 4 5 5 5 5 5 4 5 5 3 2 1 2 2 3 3 3 4 4 3 3 3 3
6 7 9 11 10 13 12 11 10 10 10 13 nan 16 15 15 14 13 13 13 8 7 8 8 6 9 9 7 3 3 1 3 5 10 5 10 6 6 7 8 5 3 2 3 3 4 5 5 5 5 7 8 8 7 6 6 4 3 4 4 4 4 5 4 4 3 3 3 3 2 2 2 2 3 3 4 4 5 5 4 5 4 4 4 3 3 1 1 2 2 3 4 3 3 3 3 4
6 7 9 12 13 13 14 13 11 11 14 nan 16 16 14 14 12 12 11 12 10 10 8 7 7 9 5 4 5 4 6 3 4 3 5 3 4 7 6 7 5 3 1 2 3 4 5 6 5 6 7 8 7 7 6 5 4 4 5 5 5 5 5 5 4 3 3 3 3 2 3 3 2 3 3 3 4 5 5 5 4 4 3 3 2 2 2 1 1 2 3 4 4 3 3 3 3
3 5 9 11 13 11 12 13 13 15 17 14 16 16 15 12 10 11 11 10 10 10 6 5 6 7 7 8 5 2 11 8 7 4 9 5 8 9 7 5 5 3 1 2 3 5 5 6 7 7 7 7 7 6 5 4 5 5 5 5 4 5 5 5 4 3 4 4 4 3 3 4 3 2 3 3 3 4 4 5 2 4 3 1 3 3 1 2 2 3 4 5 4 4 4 3 3
5 4 7 11 11 9 11 12 nan 15 17 11 14 13 13 11 10 9 9 10 11 9 9 6 2 2 3 6 2 1 3 7 8 6 5 11 8 8 7 4 5 4 2 1 3 5 5 7 8 8 7 7 6 6 5 5 5 5 4 4 4 5 5 4 4 4 4 4 4 4 4 5 3 3 1 2 1 2 1 5 2 2 0 4 8 2 3 4 4 3 4 5 6 5 4 4 3
5 4 5 9 8 7 10 12 15 11 13 11 12 9 10 10 7 9 9 10 9 8 8 5 3 1 5 6 2 1 3 3 8 6 12 13 8 7 6 4 4 4 3 1 3 5 6 9 8 8 7 7 6 5 5 5 5 5 5 4 4 4 4 4 4 4 4 4 5 5 6 5 5 4 3 2 2 1 1 1 0 1 1 4 6 9 6 6 4 4 5 6 6 6 5 4 3
2 7 6 9 9 9 10 11 12 9 9 9 9 11 8 7 6 8 8 8 6 8 4 4 4 1 1 3 1 3 1 9 11 12 14 15 9 7 4 4 5 3 3 2 2 5 6 9 8 8 7 6 5 5 6 6 5 5 5 4 4 4 3 3 3 3 4 5 5 6 6 8 8 6 5 3 2 2 1 1 1 1 1 3 5 7 8 9 8 6 6 6 6 5 5 4 2
2 7 5 6 6 10 nan nan nan nan 7 9 9 9 7 6 6 8 6 3 5 2 6 5 5 4 7 3 3 3 6 12 15 13 13 15 10 6 6 6 6 6 3 2 2 4 6 10 9 8 7 6 5 5 5 5 5 6 6 4 4 4 3 3 3 3 4 4 5 6 7 8 8 7 6 5 4 3 2 1 1 1 1 2 3 3 4 4 4 4 4 4 4 5 4 4 2
4 5 8 8 7 nan nan nan nan 9 9 7 9 11 8 5 5 7 6 3 2 1 2 7 5 6 6 2 4 3 10 15 17 16 15 15 11 7 6 5 7 6 4 2 2 4 7 7 9 8 6 6 5 5 5 4 5 6 5 4 4 4 4 3 4 4 4 4 7 8 10 11 8 8 7 7 6 5 4 3 2 2 1 1 1 1 2 2 3 3 3 3 4 4 4 3 3
6 4 5 9 nan nan nan 7 9 9 9 8 7 9 10 5 5 6 7 2 4 6 4 5 3 5 7 2 3 5 10 14 14 16 15 14 10 7 6 4 6 6 5 2 2 4 7 7 7 7 7 6 6 6 5 4 5 5 5 5 5 4 3 4 4 4 5 6 7 9 10 9 9 9 9 8 7 6 5 5 4 4 3 2 2 1 1 2 1 1 2 2 3 4 4 4 3
7 7 6 8 nan 4 5 6 7 3 6 8 4 7 7 5 5 5 8 3 7 6 5 5 10 5 2 1 0 6 10 13 13 16 16 12 9 6 5 5 5 5 5 2 2 4 6 7 8 7 6 7 6 6 5 4 4 5 6 5 5 4 3 4 5 5 5 6 7 8 9 10 10 9 9 8 7 6 6 6 6 6 6 5 4 4 4 4 5 5 4 4 4 5 4 5 4
7 6 6 8 7 5 3 4 4 nan nan 6 5 2 6 5 5 3 4 5 7 6 3 8 2 8 8 4 3 5 7 12 14 15 14 12 8 7 7 5 5 4 4 3 2 4 6 7 8 8 7 7 9 7 6 5 5 6 7 7 6 5 4 5 6 6 6 7 8 9 9 10 10 9 9 8 7 7 7 8 8 8 8 8 8 7 7 7 6 6 6 5 5 6 6 6 6
6 8 8 6 8 6 5 3 5 nan nan 5 5 3 6 7 4 5 2 4 3 6 8 3 5 7 7 11 7 9 9 12 14 15 14 12 10 7 7 5 5 3 3 3 1 4 6 7 8 8 8 9 9 10 11 8 7 8 8 8 7 7 6 7 8 8 9 9 10 10 11 11 11 10 9 9 8 8 9 10 10 10 10 10 10 10 10 9 8 7 7 7 7 7 7 7 8
7 10 8 9 9 7 nan nan 5 nan nan 5 5 3 3 4 6 3 8 8 5 5 10 2 9 5 7 10 9 14 14 13 14 15 14 13 9 6 6 6 4 2 1 2 2 4 6 7 9 9 8 9 11 11 12 12 10 10 11 9 9 9 9 10 10 11 11 12 12 12 12 12 11 11 10 10 10 10 10 11 12 11 11 10 10 10 10 10 9 9 9 8 8 8 8 8 9
7 10 9 8 12 4 4 nan nan nan nan 3 2 3 4 4 5 6 6 8 5 4 2 1 5 1 13 5 15 16 15 13 13 14 13 10 7 5 4 3 2 1 0 2 2 3 5 6 8 9 9 10 11 12 13 14 13 12 13 11 11 11 12 12 12 13 13 13 13 13 14 14 14 14 13 14 12 12 11 13 12 12 11 11 10 10 10 11 11 10 10 10 9 9 9 8 8
10 8 7 8 7 6 4 nan nan nan 2 1 4 7 4 2 5 3 2 6 7 3 4 2 6 5 5 9 14 16 15 15 14 15 13 11 7 5 4 4 3 3 2 2 2 3 5 6 7 8 9 10 11 13 15 16 16 14 15 14 13 14 14 14 15 16 15 17 15 15 15 16 16 15 14 13 13 13 13 14 14 13 13 12 12 11 11 11 12 11 11 10 10 9 8 7 9
8 11 9 7 4 4 5 4 nan 6 6 1 4 6 6 6 7 5 2 2 2 3 1 2 4 4 8 12 16 17 17 15 14 14 16 14 11 10 6 4 4 2 2 2 2 3 5 5 6 7 9 11 12 14 16 16 16 16 16 14 15 15 16 16 17 17 17 17 18 17 17 17 16 15 15 15 14 16 16 16 15 15 14 15 13 11 10 10 11 12 11 10 12 9 7 8 9
7 11 8 6 4 8 nan nan nan nan 5 3 2 6 5 4 6 7 4 5 3 5 3 3 6 9 13 14 16 17 16 14 13 14 15 14 12 11 8 8 4 3 3 2 1 4 5 5 5 7 8 10 13 15 16 16 16 16 15 14 15 16 17 17 17 18 17 17 17 17 17 17 16 15 17 17 16 15 16 17 17 16 16 15 14 11 10 9 13 13 12 12 13 10 8 9 9
12 8 7 7 5 7 7 nan nan 5 6 1 2 1 3 4 3 9 6 4 7 7 10 14 16 15 16 17 17 17 17 14 12 13 13 12 10 8 7 7 6 3 2 2 1 4 5 5 5 8 9 11 13 15 16 16 16 15 15 15 15 16 17 17 18 18 18 17 17 17 17 17 16 16 17 17 15 14 15 15 15 14 13 13 13 12 11 11 11 12 12 11 10 10 11 12 11
15 2 2 3 nan 5 6 nan nan 5 6 6 2 4 5 0 2 7 10 10 9 13 14 10 15 18 20 21 19 17 17 15 15 14 14 14 14 11 7 5 3 2 1 1 2 3 5 5 5 7 9 11 13 14 15 15 15 15 15 15 15 16 15 17 17 17 17 17 17 17 17 16 16 16 17 16 15 14 14 15 16 14 13 13 13 14 14 13 13 13 13 13 13 12 13 14 13
8 nan nan 2 3 nan nan nan nan 7 7 3 2 6 4 5 5 5 8 15 11 8 11 13 17 21 22 21 20 18 17 15 16 16 14 13 11 9 9 6 6 4 1 2 1 3 4 6 6 7 9 11 13 14 14 15 15 15 15 15 14 16 15 16 17 17 17 16 16 17 16 16 16 16 16 16 16 14 15 15 15 14 15 16 15 16 17 15 15 15 15 15 13 12 14 14 13
nan nan nan nan nan nan nan nan nan nan nan 2 5 3 1 5 6 4 10 12 2 8 11 14 15 14 18 19 21 22 20 17 17 16 15 14 14 13 10 8 5 2 1 2 1 2 4 5 7 7 10 11 13 13 13 14 15 15 15 15 15 16 15 16 16 16 16 16 16 16 16 15 15 16 16 16 16 14 15 15 16 16 17 17 16 15 17 16 16 15 15 15 13 12 13 13 12
nan nan nan nan nan nan nan nan nan nan 4 3 5 3 7 nan 7 2 10 6 7 10 10 12 14 16 19 21 21 20 18 14 13 13 10 7 8 8 6 4 5 3 3 2 1 2 4 5 7 8 10 10 12 12 13 13 14 14 14 14 15 15 15 16 16 15 16 16 16 15 15 15 15 15 16 16 14 15 15 16 17 18 17 17 15 16 16 17 16 16 16 16 14 13 12 13 11
nan nan nan nan nan nan nan nan nan nan nan nan nan 5 5 nan nan 3 2 4 7 11 12 14 15 18 20 22 22 21 18 18 15 14 13 9 8 7 6 5 5 5 4 3 0 3 4 5 6 8 10 10 10 11 12 12 13 14 14 14 14 14 15 15 14 16 16 15 16 15 16 15 15 16 16 15 15 17 17 17 17 18 18 16 15 18 18 16 17 17 17 17 15 13 11 13 12
nan nan nan nan nan nan nan nan nan nan nan nan nan nan nan nan nan 5 4 8 9 13 14 13 17 21 21 21 20 19 20 19 19 13 10 9 8 7 5 3 5 5 4 4 1 3 4 4 7 8 10 10 10 11 12 12 12 13 13 13 13 14 14 13 14 15 16 16 16 15 15 16 15 15 15 16 16 18 17 17 17 16 17 18 16 17 16 17 17 18 18 19 17 11 13 16 14
nan nan nan nan nan nan nan nan nan nan nan nan nan nan nan nan nan nan 6 12 14 16 14 14 17 19 19 22 21 18 17 16 14 14 16 15 9 6 5 2 4 3 4 4 1 3 3 5 6 7 8 9 10 11 11 11 12 13 12 12 13 13 12 13 14 14 15 16 15 15 15 16 16 16 16 16 17 17 17 17 15 14 17 16 15 16 17 17 17 17 18 18 18 14 14 13 13
nan nan nan nan nan nan nan nan nan nan nan nan nan nan nan nan nan 3 11 13 13 16 14 14 16 16 17 20 18 17 18 17 15 14 15 12 9 6 6 2 1 1 2 3 1 1 3 4 5 6 7 9 10 10 11 11 11 12 11 12 12 12 12 12 13 14 14 15 14 14 16 16 16 16 17 17 17 17 16 15 15 15 15 15 14 15 17 17 17 17 18 16 16 15 13 12 14
nan nan nan nan nan nan nan nan nan nan nan nan nan nan nan nan nan 7 11 13 11 12 12 13 12 12 13 16 17 17 17 17 17 16 13 11 10 8 7 4 3 0 1 1 1 1 4 7 7 7 7 8 9 10 10 10 10 11 11 11 11 11 11 12 13 13 13 14 14 14 16 17 17 16 16 17 16 15 14 14 15 15 15 14 13 15 17 17 17 15 17 16 17 15 15 14 14
nan nan nan nan nan nan nan nan nan nan nan nan nan nan nan nan nan 8 11 15 14 11 11 13 12 11 11 14 15 17 20 20 20 18 16 12 9 6 6 4 3 0 3 1 2 1 2 5 6 8 7 7 8 10 10 10 9 10 11 11 10 10 11 11 12 12 12 13 13 15 16 17 17 17 16 15 15 14 13 13 14 15 14 13 13 16 17 17 15 16 15 17 15 14 14 14 15
nan nan nan nan nan nan nan nan nan nan nan nan nan nan nan nan 5 9 11 12 14 12 11 12 12 11 12 14 16 18 19 19 19 20 19 15 10 6 6 5 3 1 1 1 1 2 3 5 5 6 6 7 8 9 9 9 9 9 10 10 9 9 10 10 11 12 12 13 14 14 16 16 16 16 15 14 14 13 12 13 14 14 14 13 14 15 15 17 16 15 15 15 15 15 13 12 15
nan nan nan nan nan nan nan nan nan nan nan nan nan nan nan nan 5 7 10 13 13 13 12 12 14 13 13 15 16 18 17 18 18 20 20 17 11 6 5 3 2 2 2 1 1 2 3 4 5 5 5 7 8 8 8 9 8 9 9 9 9 8 9 10 11 11 11 13 14 15 15 16 14 14 13 12 12 12 12 13 14 14 13 14 14 15 15 18 16 15 15 15 15 13 12 12 14
nan nan nan nan nan nan nan nan nan nan nan nan nan nan nan nan 6 5 6 11 11 11 13 13 12 10 13 15 16 18 18 19 21 21 21 19 13 10 5 3 2 2 1 1 1 1 2 4 6 6 7 7 8 8 8 7 8 8 9 9 9 8 9 10 11 11 11 12 13 15 15 15 13 14 12 11 12 12 12 13 13 14 13 14 15 15 18 17 17 16 15 16 15 14 12 10 nan
nan nan nan nan nan nan nan nan nan nan nan nan nan nan nan 14 8 4 5 8 12 14 15 13 10 9 12 15 16 17 17 20 21 20 21 20 17 12 7 4 3 3 3 2 2 2 4 5 7 7 7 7 8 8 7 7 7 8 9 9 9 9 9 10 10 10 11 11 13 14 14 14 13 13 10 10 10 11 12 12 13 13 13 15 15 16 17 17 18 16 16 17 15 15 13 11 nan
nan nan nan nan nan nan nan nan nan nan nan nan nan nan nan 15 9 4 4 7 10 13 14 9 7 8 11 14 16 14 17 20 18 18 21 18 16 14 9 5 3 2 3 4 3 2 2 4 6 7 7 7 8 8 7 6 7 7 8 9 10 9 9 9 10 10 10 12 13 13 14 14 13 12 11 9 9 10 11 13 13 13 14 14 15 16 17 18 19 18 16 16 16 15 12 nan nan
nan nan nan nan nan nan nan nan nan nan nan nan nan nan nan 13 10 6 3 4 4 8 12 8 6 7 9 14 16 17 17 19 17 18 20 20 19 16 12 7 4 3 3 5 4 2 2 3 4 4 6 6 7 7 7 6 6 7 8 8 9 9 9 9 10 10 10 12 13 13 13 13 13 12 11 9 9 9 11 12 12 13 14 15 16 18 18 18 18 17 15 16 15 15 13 nan nan
nan nan nan nan nan nan nan nan nan nan nan nan nan nan nan nan 10 9 6 3 4 9 11 10 11 10 8 15 17 18 18 11 13 14 17 19 17 17 14 9 6 5 3 5 5 4 3 4 3 5 7 5 6 7 8 8 7 7 6 7 8 8 8 8 10 10 10 11 12 13 13 12 12 12 10 9 8 10 11 12 13 14 14 15 16 16 16 17 16 16 15 14 16 16 15 nan nan
nan nan nan nan nan nan nan nan nan nan nan nan nan nan nan nan 7 11 8 3 7 10 13 14 15 13 7 12 15 16 15 14 15 17 15 16 18 18 15 12 9 7 5 5 4 4 3 4 5 7 7 5 6 6 8 8 7 7 6 7 6 8 9 9 8 8 9 11 12 12 12 12 11 11 10 9 8 9 11 11 13 14 14 14 14 15 15 16 17 17 16 15 15 15 15 14 nan
nan nan nan nan nan nan nan nan nan nan nan nan nan nan nan nan 9 10 3 4 6 8 9 8 13 15 12 14 15 17 20 18 20 20 18 16 17 17 15 13 12 8 5 5 4 3 3 4 5 5 6 6 6 5 6 7 6 7 7 7 7 6 8 8 8 7 9 10 12 12 12 11 11 10 10 8 8 9 10 11 11 13 14 14 15 15 15 15 16 15 14 15 14 14 14 nan 15
nan nan nan nan nan nan nan nan nan nan nan nan nan nan nan nan nan 16 9 7 7 8 5 3 3 6 9 8 8 12 19 20 19 18 16 15 16 17 17 14 11 9 5 5 4 3 4 3 4 5 7 6 7 5 3 5 6 6 5 7 6 6 9 7 8 9 9 10 10 10 12 10 10 10 10 9 8 9 9 10 11 12 12 13 13 14 14 16 15 15 13 13 14 14 14 nan 15
nan nan nan nan nan nan nan nan nan nan nan nan nan nan nan nan nan nan nan nan 13 11 6 3 1 4 11 6 6 9 12 13 18 20 20 19 17 15 14 13 13 10 5 3 4 4 4 5 6 7 9 8 7 5 3 3 4 4 3 3 4 5 7 6 8 8 8 8 11 10 9 10 9 9 9 9 9 8 9 10 10 11 11 12 13 14 13 12 12 12 13 13 14 12 12 nan nan
nan nan nan nan nan nan nan nan nan nan nan nan nan nan nan nan nan nan nan nan nan 9 6 4 4 9 10 6 4 7 10 11 13 14 15 16 15 14 15 15 14 12 6 4 5 5 5 5 6 8 9 9 8 6 3 2 3 5 4 3 3 3 5 8 8 9 7 8 7 7 9 8 8 8 8 8 9 9 9 10 11 11 11 11 11 11 12 13 12 12 10 10 13 10 8 11 nan
nan nan nan nan nan nan nan nan nan nan nan nan nan nan nan nan nan nan nan nan nan nan nan 6 7 10 7 6 4 5 8 10 11 16 18 17 16 16 18 18 14 13 7 5 5 5 6 5 5 7 9 9 8 7 3 2 2 4 4 4 4 4 6 7 7 8 6 5 6 7 6 7 7 7 8 8 9 10 10 12 12 12 12 12 11 12 13 12 10 9 9 10 9 9 9 11 13
nan nan nan nan nan nan nan nan nan nan nan nan nan nan nan nan nan nan nan nan nan nan nan nan nan 3 3 7 6 4 6 8 8 10 16 18 17 16 15 16 16 13 8 4 5 6 6 7 6 7 8 8 8 6 4 3 4 5 4 3 2 6 8 8 8 7 5 5 5 6 5 5 5 6 7 8 9 11 11 12 13 13 14 14 13 13 12 11 11 11 10 8 9 8 9 8 8
nan nan nan nan nan nan nan nan nan nan nan nan nan nan nan nan nan nan nan nan nan nan nan nan nan nan 1 5 6 4 2 2 3 8 11 15 15 14 14 14 14 12 8 4 5 7 7 8 7 6 6 7 7 6 5 4 5 6 5 2 1 5 8 9 8 6 6 6 5 5 5 3 4 5 6 7 8 10 11 11 13 15 15 15 14 15 13 12 11 11 11 10 9 8 7 8 10
nan nan nan nan nan nan nan nan nan nan nan nan nan nan nan nan nan nan nan nan 3 8 nan nan nan nan 3 1 4 6 6 4 3 5 7 10 12 13 12 12 13 11 7 6 6 7 7 7 7 6 5 7 6 5 6 5 6 5 4 2 1 3 5 8 7 8 8 8 7 6 4 4 3 5 4 6 7 9 10 10 12 14 13 14 15 16 16 15 14 12 11 9 9 10 9 8 8
nan nan nan nan nan nan nan nan nan nan nan nan nan nan nan nan nan nan nan nan nan nan nan nan nan nan nan nan nan 5 6 5 4 3 3 6 7 10 11 11 12 12 9 7 6 7 7 7 7 6 5 5 6 5 5 6 6 5 4 2 1 3 5 6 5 7 7 8 8 7 6 5 4 4 3 4 5 7 8 10 11 11 13 14 16 16 17 17 15 14 12 11 11 9 8 8 8
nan nan nan nan nan nan nan nan nan nan nan nan nan nan nan nan nan nan nan nan nan nan nan nan nan nan nan nan nan 5 5 6 6 3 2 3 7 11 12 11 10 11 10 9 7 7 7 7 7 6 3 4 5 5 5 5 6 5 4 2 1 5 6 5 6 6 7 8 8 8 6 6 5 3 3 4 5 7 8 9 10 11 12 13 14 14 15 17 17 16 16 14 12 12 12 11 10
nan nan nan nan nan nan nan nan nan nan nan nan nan nan nan nan nan nan nan nan nan nan nan nan nan nan 14 15 nan 6 4 5 4 2 1 3 6 9 10 10 11 10 10 8 7 7 8 7 6 5 2 4 6 5 4 5 4 5 4 3 4 6 6 6 6 6 7 8 7 7 6 5 4 4 3 5 5 5 6 7 8 9 9 9 10 12 14 15 16 17 17 17 16 15 12 13 13
nan nan nan nan nan nan nan nan nan nan nan nan nan nan nan nan nan nan nan nan nan nan nan nan nan nan 8 12 12 7 4 3 2 3 2 4 6 9 10 10 11 12 11 9 6 6 8 8 7 4 3 3 4 4 5 4 5 6 6 4 6 8 8 8 7 7 7 7 7 6 6 6 4 4 3 3 0 3 4 4 5 6 7 9 9 10 11 13 14 15 16 17 17 16 16 16 15
nan nan nan nan nan nan nan nan nan nan nan nan nan nan nan nan nan nan nan nan nan nan nan nan nan nan nan 9 5 2 3 3 4 3 3 4 3 7 8 9 10 10 11 9 7 6 6 6 7 5 4 3 4 4 5 5 7 8 7 6 7 8 10 10 10 10 9 7 6 5 5 5 4 3 3 3 1 2 2 3 3 5 6 7 8 8 9 10 12 13 14 15 17 15 17 18 18
nan nan nan nan nan nan nan nan nan nan nan nan nan nan nan nan nan nan nan nan nan nan nan nan nan nan nan nan nan 4 4 4 4 3 3 3 1 4 9 11 10 9 10 11 9 6 5 6 6 5 4 4 3 4 5 8 9 9 8 8 9 10 9 8 7 6 6 7 6 6 5 4 4 4 4 3 2 2 2 3 3 4 5 6 7 8 8 9 10 11 12 13 15 15 16 18 18
nan nan nan nan nan nan nan nan nan nan nan nan nan nan nan nan nan nan nan nan nan nan nan nan nan nan nan nan nan 4 4 4 4 2 1 1 2 5 6 9 11 11 11 11 11 7 5 4 5 5 4 2 3 5 6 9 8 8 8 8 9 9 9 8 8 8 9 8 7 7 7 6 4 3 4 3 3 3 3 4 4 4 5 6 7 7 8 9 10 9 10 11 12 13 14 15 16
nan nan nan nan nan nan nan nan nan nan nan nan nan nan nan nan nan nan nan nan nan nan nan nan nan nan nan nan nan 3 4 6 8 6 9 9 5 2 4 10 11 10 10 10 10 9 6 4 4 4 3 1 4 8 9 10 9 10 11 10 10 11 11 11 11 11 11 8 6 6 5 4 5 6 5 5 4 4 4 4 5 5 5 6 7 7 8 8 9 9 9 10 10 12 12 14 15
nan nan nan nan nan nan nan nan nan nan nan nan nan nan nan nan nan nan nan nan nan nan nan nan nan nan nan nan 6 4 1 5 7 8 9 7 4 2 6 9 11 11 9 7 8 7 6 4 4 3 3 5 7 7 9 9 9 10 11 12 12 12 11 11 11 11 9 8 7 6 6 7 4 6 5 5 4 4 4 5 5 5 6 6 7 7 8 8 8 8 9 9 10 11 11 12 12
nan nan nan nan nan nan nan nan nan nan nan nan nan nan nan nan nan nan nan nan nan nan nan nan nan nan nan nan 11 10 7 6 7 9 10 10 6 1 3 5 7 8 8 5 4 5 4 5 3 3 4 4 4 5 7 8 9 9 10 10 11 11 10 11 12 10 9 9 9 8 8 7 10 7 6 5 4 4 5 5 5 6 6 7 7 8 8 7 8 8 8 9 9 10 11 10 10
nan nan nan nan nan nan nan nan nan nan nan nan nan nan nan nan nan nan nan nan nan nan nan nan nan nan nan nan 12 14 12 9 8 8 12 14 9 4 2 4 7 10 9 5 4 4 4 3 3 4 4 3 2 4 5 6 9 9 8 9 10 12 12 12 10 9 9 9 9 8 9 10 8 7 6 4 4 4 4 6 6 6 7 7 7 8 8 8 7 7 7 8 9 10 10 9 9
Wind_Direction
22 37 50 28 45 58 63 89 nan 85 91 101 nan 98 107 104 118 116 115 116 107 112 110 106 72 63 95 98 100 109 115 51 109 nan nan 72 13 347 31 335 317 314 342 101 102 36 52 36 324 318 318 314 313 311 302 299 301 312 332 359 7 4 1 354 358 2 1 360 2 29 83 115 136 122 112 109 107 102 99 96 102 114 129 122 99 66 31 25 29 22 41 49 51 46 46 39 350
32 34 36 40 nan 55 74 83 nan nan 86 102 nan 112 113 115 115 110 107 105 114 109 111 113 133 136 139 74 23 85 134 137 110 113 126 71 344 351 4 339 326 326 358 124 119 119 110 74 339 326 324 325 320 314 308 309 313 330 8 13 17 11 6 5 10 11 2 8 28 49 71 123 137 123 107 101 97 96 99 106 118 117 91 75 79 105 156 168 36 17 33 43 45 41 49 51 51
33 29 42 67 69 74 85 83 87 nan nan nan nan 113 126 116 111 115 116 113 113 114 124 147 157 127 95 85 49 100 93 125 29 50 116 9 332 34 358 345 333 314 302 147 146 131 112 76 351 335 332 331 323 318 319 317 324 353 20 26 24 13 9 12 19 17 12 20 26 50 84 94 123 109 103 100 96 100 112 121 114 115 123 124 153 170 238 30 67 16 15 25 24 26 36 46 56
34 54 43 61 71 85 77 87 94 88 95 100 nan 117 112 113 114 114 124 126 112 109 119 124 120 103 74 95 71 211 149 88 66 333 355 27 43 15 357 341 332 302 202 150 140 131 111 39 355 347 341 335 328 326 325 321 334 9 28 28 23 22 14 19 15 21 25 24 32 33 67 65 92 101 111 120 130 124 120 125 136 129 134 152 179 189 202 174 99 34 4 1 2 1 8 27 39
29 53 69 78 85 85 85 88 96 92 100 nan 113 118 111 114 116 118 119 119 114 118 128 117 117 124 117 35 70 57 32 279 14 50 332 65 347 357 359 337 331 308 285 142 141 120 97 16 5 350 348 340 335 334 328 327 353 25 31 29 27 17 14 19 17 16 26 34 32 43 61 78 93 117 133 134 140 128 139 145 134 130 135 165 169 202 192 146 158 49 22 341 338 344 347 359 28
44 64 80 102 92 100 93 99 89 89 96 113 118 116 121 114 113 119 122 115 119 131 127 105 96 83 121 113 107 19 323 343 28 59 327 16 354 344 352 344 330 318 315 139 128 121 97 25 4 356 357 346 341 339 332 343 13 32 36 28 28 22 14 16 12 22 27 36 35 42 70 90 101 124 152 156 151 141 153 145 119 82 39 22 212 234 331 20 49 31 351 335 333 335 335 345 7
41 78 96 96 93 94 95 90 nan 95 110 105 112 117 112 111 114 119 109 120 121 125 104 102 314 309 121 85 196 248 359 315 354 24 326 333 352 335 346 354 327 327 331 91 120 117 79 23 10 3 2 354 349 346 344 5 26 32 39 36 24 29 16 3 25 28 43 46 45 48 53 62 77 85 97 113 136 157 136 62 59 76 293 319 310 345 353 346 357 7 337 331 330 331 331 337 342
97 109 84 85 98 100 96 103 98 96 113 96 116 105 101 95 113 103 93 109 94 106 106 46 44 302 138 122 21 330 316 324 319 335 307 323 350 330 337 352 325 338 341 57 106 106 48 23 20 11 10 3 3 360 1 19 26 41 45 38 28 33 21 4 29 35 52 58 52 64 66 70 68 65 73 94 109 103 108 164 321 229 329 298 308 335 353 325 338 347 330 327 322 324 324 325 318
105 133 120 109 98 115 110 95 103 106 116 129 115 102 79 83 86 92 89 119 129 121 72 64 40 241 94 208 211 286 308 300 313 329 323 327 346 336 336 342 328 344 341 2 80 93 79 33 23 16 18 17 18 17 16 23 31 45 49 40 23 30 28 11 28 45 59 63 65 67 67 64 62 65 65 74 95 115 129 146 175 281 270 291 314 320 328 329 341 340 329 324 328 327 323 324 313
171 123 119 113 117 102 nan nan nan nan 112 126 122 103 76 68 60 96 79 113 113 165 137 154 146 292 289 268 329 333 6 315 324 331 329 336 345 342 329 332 327 328 326 348 70 79 87 32 23 22 28 30 33 33 31 31 40 47 48 46 31 30 26 16 28 47 63 69 92 85 73 65 59 60 62 69 78 86 104 120 158 175 236 268 276 291 298 306 311 324 327 330 336 344 340 336 337
147 133 143 123 111 nan nan nan nan 122 121 123 124 119 99 69 65 101 125 103 297 240 184 266 234 306 290 138 122 339 338 325 332 334 336 340 346 341 327 331 328 322 316 335 59 82 84 72 23 26 34 39 42 45 43 46 52 55 56 51 49 45 34 33 36 46 62 57 53 63 69 65 60 62 63 66 71 83 93 104 108 121 152 168 262 281 313 319 324 332 335 338 346 354 358 359 7
157 168 151 111 nan nan nan 107 123 129 122 114 109 104 119 69 120 101 100 14 319 320 13 81 64 330 256 87 86 352 340 335 333 329 332 338 341 333 321 329 326 316 308 325 54 89 94 92 85 47 35 42 49 53 57 57 63 72 72 67 63 60 52 58 59 53 55 55 51 49 55 64 65 66 69 72 76 83 92 93 99 98 88 87 69 33 3 352 10 48 48 42 28 19 16 16 26
164 197 172 147 nan 125 114 126 122 127 133 113 64 106 132 114 111 133 118 37 331 323 42 97 339 89 274 233 39 352 347 340 332 329 330 336 334 327 315 316 318 307 303 315 52 90 100 111 107 103 86 41 52 58 61 70 81 87 87 79 78 70 66 74 75 70 67 62 59 62 67 71 73 72 75 77 80 81 85 86 81 74 74 68 65 60 46 40 37 42 49 56 52 51 45 40 35
185 208 195 144 147 123 126 127 143 nan nan 114 141 155 120 167 147 126 126 356 345 342 359 318 339 285 276 278 347 23 8 341 331 330 330 330 330 323 317 311 313 309 298 318 56 99 112 114 117 115 106 112 118 88 69 72 92 95 88 88 84 84 84 83 85 82 85 80 79 79 79 78 76 75 72 71 69 71 72 74 74 74 71 71 71 68 64 60 55 54 50 51 57 63 63 62 56
189 209 191 151 134 144 119 130 75 nan nan 75 82 94 127 156 162 141 62 311 180 241 285 276 358 299 34 360 9 12 0 347 333 331 329 329 330 324 315 311 310 305 297 319 56 108 117 120 119 121 127 126 120 128 128 109 83 90 87 84 87 87 90 89 89 92 91 89 86 84 82 78 77 74 70 70 71 70 73 79 79 77 74 73 70 72 70 68 66 60 57 52 53 51 55 63 68
206 208 199 159 126 146 nan nan 133 nan nan 70 89 92 131 132 119 97 120 160 190 276 316 294 77 118 2 58 358 340 340 340 335 331 326 328 330 321 316 316 316 318 302 329 32 115 122 121 124 125 129 125 125 128 125 122 94 82 83 79 82 86 86 89 88 89 87 86 85 84 81 87 83 87 72 85 79 79 83 87 81 79 77 74 75 74 74 72 71 66 62 52 49 48 48 52 61
226 209 191 165 138 158 164 nan nan nan nan 152 109 44 33 87 94 143 158 157 312 340 242 299 68 107 0 10 335 326 332 336 337 331 325 328 337 337 323 326 333 338 78 8 49 106 117 121 123 130 127 125 125 125 123 120 105 82 86 78 77 80 84 82 85 83 85 87 91 87 88 104 107 106 101 105 90 102 93 87 83 83 79 77 76 74 76 81 77 74 68 67 57 54 52 48 54
233 219 208 150 132 156 166 nan nan nan 255 46 24 46 358 7 54 102 197 163 156 357 170 333 165 223 314 311 325 326 332 340 344 335 335 332 341 341 342 342 355 11 18 25 64 104 118 125 123 126 127 121 124 121 122 119 112 94 108 108 108 96 90 89 97 107 96 112 89 100 111 108 109 108 105 98 112 101 101 88 87 83 81 79 74 70 71 77 80 74 79 79 77 65 60 84 78
224 220 218 152 184 138 213 200 nan 220 136 32 30 62 24 22 350 38 326 61 116 28 205 256 233 263 295 319 328 333 341 349 348 345 339 337 345 347 349 347 4 354 9 43 95 92 123 136 129 118 121 122 121 121 120 120 115 114 110 112 109 98 103 104 110 107 114 111 114 112 108 109 107 106 105 104 102 97 99 90 88 83 83 80 76 71 68 71 80 80 78 82 82 79 70 68 73
226 208 203 167 158 182 nan nan nan nan 202 231 23 80 77 12 346 358 354 356 57 44 360 327 346 338 333 332 337 339 347 353 355 351 344 341 346 349 345 347 354 8 351 11 83 133 131 129 119 116 115 119 119 120 122 119 118 115 110 112 109 109 108 111 109 112 110 111 111 108 105 106 107 107 99 91 90 96 97 96 85 83 82 85 82 88 86 72 69 76 69 61 70 73 73 68 65
241 223 215 202 200 186 154 nan nan 141 172 237 74 111 71 49 349 343 314 304 60 69 31 2 360 349 341 341 345 348 351 357 357 358 349 341 346 356 352 349 347 341 350 313 163 125 122 126 128 119 119 120 120 119 118 118 119 113 113 111 110 110 109 110 109 110 108 107 108 106 106 108 108 106 106 109 106 92 91 94 99 99 98 96 102 86 87 85 85 82 86 86 74 72 72 71 66
221 295 25 222 nan 244 151 nan nan 182 172 205 200 311 64 171 84 4 337 359 26 39 27 21 355 344 340 345 349 352 359 1 0 359 356 347 349 354 349 344 336 316 262 2 47 128 123 124 118 123 121 118 116 114 113 112 109 108 108 109 110 111 107 108 108 107 106 106 107 106 110 107 108 104 102 101 102 95 87 90 93 95 93 92 93 91 89 86 81 79 82 81 78 74 72 70 67
203 nan nan 231 207 nan nan nan nan 248 199 214 313 58 212 1 69 45 12 27 48 34 6 357 359 351 347 344 344 354 2 6 4 3 356 350 349 354 351 350 347 347 355 40 58 138 133 124 118 123 119 120 115 118 118 114 111 108 109 109 108 106 108 107 103 105 105 107 107 107 104 104 103 100 100 98 97 94 88 88 90 92 92 90 90 85 87 86 83 82 85 82 80 74 74 73 67
nan nan nan nan nan nan nan nan nan nan nan 354 17 223 142 30 77 54 50 54 47 357 359 358 357 346 345 351 357 356 4 6 7 5 359 354 353 354 350 349 350 310 318 26 76 136 126 110 118 119 121 121 120 117 113 111 115 109 107 108 106 104 106 106 104 104 107 104 105 103 104 101 98 96 97 96 94 92 87 86 90 93 91 90 90 82 82 84 83 86 88 87 83 75 73 75 73
nan nan nan nan nan nan nan nan nan nan 150 155 226 254 64 nan 77 299 54 33 335 335 345 354 358 358 3 0 1 3 4 5 4 5 1 353 351 347 348 345 343 328 351 13 106 126 112 117 118 117 122 118 121 117 111 113 113 110 109 108 106 101 106 105 105 108 105 103 103 101 101 94 94 91 90 90 91 88 88 90 91 91 89 86 85 85 82 82 83 81 83 84 80 74 73 75 71
nan nan nan nan nan nan nan nan nan nan nan nan nan 125 79 nan nan 79 332 329 332 327 342 357 4 4 6 9 5 5 8 4 1 2 2 354 348 350 3 357 342 352 2 335 56 123 133 122 111 114 118 119 121 117 117 113 108 104 103 103 107 105 104 106 110 106 104 102 100 97 93 90 85 84 86 89 84 86 88 92 92 89 85 84 80 78 77 76 78 81 82 82 80 74 73 70 69
nan nan nan nan nan nan nan nan nan nan nan nan nan nan nan nan nan 152 242 311 316 328 342 0 3 7 7 9 12 10 8 7 5 359 352 358 359 3 2 354 2 2 336 350 33 135 136 123 115 120 123 126 129 117 117 111 108 102 101 105 108 103 105 107 107 105 103 101 96 91 87 86 84 83 82 81 82 84 89 89 85 84 84 80 75 76 78 74 75 73 74 74 73 68 78 73 68
nan nan nan nan nan nan nan nan nan nan nan nan nan nan nan nan nan nan 315 322 327 331 341 0 9 9 9 8 11 10 12 11 7 4 1 0 8 1 356 8 18 356 355 3 64 166 134 101 113 124 127 129 125 118 118 112 106 101 102 106 103 104 108 106 104 103 99 96 92 87 84 83 83 80 78 80 80 83 86 83 82 78 77 79 75 76 80 80 76 76 73 70 70 69 61 68 64
nan nan nan nan nan nan nan nan nan nan nan nan nan nan nan nan nan 248 316 323 335 331 338 358 10 16 12 9 10 10 11 9 11 16 13 9 7 359 1 1 331 14 118 5 312 164 96 107 124 125 132 131 123 116 116 115 112 108 103 101 103 105 104 105 101 97 94 91 89 84 84 82 80 77 78 78 80 80 82 81 80 76 75 74 76 77 82 85 83 78 75 67 69 74 74 66 57
nan nan nan nan nan nan nan nan nan nan nan nan nan nan nan nan nan 267 300 310 317 317 330 356 13 20 18 13 15 13 12 10 15 19 14 13 12 7 3 342 312 152 136 152 280 97 142 148 147 149 133 126 120 123 124 120 111 108 108 106 106 104 104 102 98 97 93 90 88 85 83 81 80 81 80 80 80 79 78 75 74 74 74 75 76 81 83 84 82 73 70 66 66 67 74 67 58
nan nan nan nan nan nan nan nan nan nan nan nan nan nan nan nan nan 284 298 306 311 317 330 355 10 19 20 22 22 18 16 16 15 13 15 12 13 14 5 334 327 330 172 149 38 89 150 149 155 154 139 127 125 122 118 116 117 111 107 107 106 103 103 100 98 98 96 91 89 88 83 83 82 82 81 79 78 77 74 74 74 72 72 74 73 80 83 85 80 73 65 60 67 73 71 70 66
nan nan nan nan nan nan nan nan nan nan nan nan nan nan nan nan 210 289 290 306 315 317 332 350 7 18 24 26 20 20 20 18 17 16 15 10 8 13 11 4 339 318 137 117 161 204 154 154 153 155 144 127 125 123 124 119 113 112 110 109 110 107 104 101 99 97 96 95 93 89 87 86 87 84 81 79 77 75 72 71 71 70 68 69 72 80 86 82 76 70 70 61 68 76 76 76 70
nan nan nan nan nan nan nan nan nan nan nan nan nan nan nan nan 221 280 295 307 315 314 325 342 1 15 26 30 21 17 16 17 18 18 16 13 11 9 21 21 353 336 212 159 104 220 188 159 158 153 138 129 131 126 127 127 124 116 111 106 101 106 103 102 102 100 100 98 95 91 88 86 88 86 80 77 73 71 71 71 73 68 67 65 71 80 81 77 70 62 65 67 66 76 77 79 75
nan nan nan nan nan nan nan nan nan nan nan nan nan nan nan nan 234 274 294 308 312 311 322 339 359 22 33 35 25 16 16 15 18 16 16 13 11 6 10 33 353 324 246 190 158 203 215 184 163 159 162 146 139 133 131 130 125 120 118 112 110 102 99 101 102 101 99 97 94 90 87 86 85 84 77 73 72 71 69 70 73 72 68 66 69 75 75 75 70 61 61 74 78 79 82 79 nan
nan nan nan nan nan nan nan nan nan nan nan nan nan nan nan 209 234 268 307 303 319 326 324 335 355 21 38 41 32 19 16 17 20 15 14 14 10 7 3 4 1 336 249 268 225 191 204 195 181 170 170 153 144 142 143 136 134 130 125 115 107 105 107 104 104 101 98 95 89 87 87 86 83 83 79 69 67 71 71 72 73 73 67 65 67 70 74 74 72 68 68 76 81 81 81 73 nan
nan nan nan nan nan nan nan nan nan nan nan nan nan nan nan 230 252 254 278 313 330 330 319 320 355 20 40 43 34 23 17 20 18 12 12 15 13 6 3 355 7 344 276 265 276 224 203 212 197 181 173 163 158 151 146 135 132 120 111 115 114 109 106 104 105 99 97 91 89 87 87 85 83 80 78 72 65 65 67 67 68 70 65 61 62 65 70 68 66 70 74 80 84 87 91 nan nan
nan nan nan nan nan nan nan nan nan nan nan nan nan nan nan 257 281 281 295 315 337 320 321 322 1 8 41 51 34 23 21 19 12 8 9 14 12 8 4 353 355 350 307 298 296 278 215 212 220 193 185 181 158 145 137 130 120 124 124 110 99 102 101 101 103 105 98 93 90 88 85 84 82 79 79 75 68 70 69 68 65 65 61 59 59 61 62 63 65 68 72 77 75 80 85 nan nan
nan nan nan nan nan nan nan nan nan nan nan nan nan nan nan nan 278 281 251 265 23 13 351 339 355 354 28 47 33 23 29 21 7 11 9 11 13 10 6 1 349 347 337 310 311 301 234 211 210 205 203 184 153 141 142 138 135 128 117 105 112 115 112 104 102 104 97 99 94 90 88 86 80 78 77 76 72 66 66 66 61 58 56 58 61 63 62 64 64 69 70 76 78 67 72 nan nan
nan nan nan nan nan nan nan nan nan nan nan nan nan nan nan nan 276 267 268 32 65 45 15 355 341 337 3 45 34 24 27 22 14 16 9 9 11 9 9 7 358 347 332 322 301 279 251 215 202 211 204 197 172 158 156 144 150 147 133 132 116 132 130 120 115 111 108 99 96 93 92 89 83 82 78 71 67 67 62 60 59 57 57 57 58 62 61 59 61 62 65 63 69 70 68 71 nan
nan nan nan nan nan nan nan nan nan nan nan nan nan nan nan nan 230 258 273 54 100 86 51 357 329 331 351 19 19 20 23 18 17 13 10 6 8 10 9 10 5 347 323 310 301 325 262 228 214 213 212 211 197 178 156 153 152 154 149 158 142 128 134 137 131 120 104 102 95 94 95 91 86 82 77 69 65 60 56 56 56 55 56 57 53 53 57 60 61 63 63 66 61 59 68 nan 71
nan nan nan nan nan nan nan nan nan nan nan nan nan nan nan nan nan 211 179 132 145 135 134 188 269 322 346 358 18 29 24 19 15 11 9 4 3 9 8 7 4 358 339 321 308 289 213 266 237 226 217 222 211 206 185 168 160 169 171 178 172 162 161 142 141 131 107 101 104 100 88 92 88 83 78 66 56 50 52 52 51 53 51 54 54 52 51 53 55 57 55 58 58 52 57 nan 74
nan nan nan nan nan nan nan nan nan nan nan nan nan nan nan nan nan nan nan nan 151 154 181 185 210 256 242 252 33 41 45 34 17 8 6 6 3 358 359 359 8 10 352 306 286 271 232 214 222 225 217 217 223 227 231 183 136 137 155 158 157 138 128 137 114 102 109 99 86 94 98 89 86 86 80 68 57 50 44 46 49 49 50 49 51 50 52 54 56 56 54 54 58 59 50 nan nan
nan nan nan nan nan nan nan nan nan nan nan nan nan nan nan nan nan nan nan nan nan 166 169 149 206 238 260 296 357 25 31 37 33 19 8 3 358 352 359 2 9 13 3 275 262 266 257 225 218 233 229 222 230 234 246 185 156 160 146 140 152 117 104 116 105 102 101 113 128 103 93 96 85 72 72 64 57 51 46 46 45 47 47 46 51 50 51 50 50 54 53 53 59 53 50 51 nan
nan nan nan nan nan nan nan nan nan nan nan nan nan nan nan nan nan nan nan nan nan nan nan 153 207 225 250 283 324 6 24 32 26 17 7 1 355 353 0 5 5 14 359 296 275 263 274 256 235 236 231 231 232 236 243 216 188 191 201 186 165 109 85 90 90 103 129 132 108 102 101 90 80 72 63 56 52 52 47 46 46 45 44 44 43 46 47 49 49 55 52 53 57 52 42 40 54
nan nan nan nan nan nan nan nan nan nan nan nan nan nan nan nan nan nan nan nan nan nan nan nan nan 216 250 283 301 342 19 24 23 16 5 359 356 354 357 4 9 4 358 327 283 261 253 251 248 238 240 241 241 253 244 238 219 224 234 231 164 126 122 136 154 155 145 129 113 124 109 97 85 77 64 50 49 51 50 46 46 45 43 42 42 45 48 44 41 41 44 45 48 53 42 45 42
nan nan nan nan nan nan nan nan nan nan nan nan nan nan nan nan nan nan nan nan nan nan nan nan nan nan 342 282 296 308 298 307 33 30 8 359 349 347 357 7 1 359 353 319 272 254 248 242 247 251 246 237 243 263 259 261 254 244 250 257 68 140 153 169 172 143 131 132 113 111 118 116 94 83 70 56 50 52 51 46 44 43 41 38 37 41 41 43 45 44 43 40 35 40 43 33 39
nan nan nan nan nan nan nan nan nan nan nan nan nan nan nan nan nan nan nan nan 167 129 nan nan nan nan 116 169 292 282 276 302 4 21 4 354 342 343 352 2 4 353 336 314 282 272 265 257 253 254 250 232 241 259 268 276 265 260 261 285 38 145 171 178 166 145 144 147 129 130 128 108 101 82 75 62 51 50 51 45 41 41 38 37 34 33 35 36 39 41 44 45 38 31 32 32 40
nan nan nan nan nan nan nan nan nan nan nan nan nan nan nan nan nan nan nan nan nan nan nan nan nan nan nan nan nan 277 287 296 332 315 333 333 321 340 352 5 2 357 341 324 288 271 270 265 261 263 238 238 234 242 259 269 267 267 259 276 146 167 190 174 147 133 133 128 129 134 142 154 130 120 104 81 58 49 47 44 41 35 33 33 32 28 30 31 31 34 38 41 44 41 35 28 29
nan nan nan nan nan nan nan nan nan nan nan nan nan nan nan nan nan nan nan nan nan nan nan nan nan nan nan nan nan 319 298 287 277 285 308 325 339 345 354 4 2 359 353 333 304 273 264 262 273 276 245 232 233 239 251 263 263 259 258 265 177 194 192 174 156 143 143 133 138 145 155 136 149 146 111 76 59 37 37 37 34 31 32 31 27 23 25 25 26 26 32 36 38 39 37 32 28
nan nan nan nan nan nan nan nan nan nan nan nan nan nan nan nan nan nan nan nan nan nan nan nan nan nan 18 7 nan 333 285 277 281 278 0 6 351 347 345 352 3 358 350 334 306 279 261 254 268 276 258 226 220 225 240 251 261 258 250 219 184 199 196 182 167 149 145 147 147 136 132 126 126 94 76 62 46 29 32 31 23 27 27 22 21 19 16 19 20 24 27 30 34 36 33 35 37
nan nan nan nan nan nan nan nan nan nan nan nan nan nan nan nan nan nan nan nan nan nan nan nan nan nan 9 350 341 333 285 263 214 191 69 38 7 344 340 352 359 353 346 335 305 285 266 262 264 274 247 213 216 227 224 240 233 238 232 201 184 194 196 188 174 170 167 162 157 147 139 148 138 121 91 81 3 14 25 13 10 10 8 8 8 9 7 8 12 17 22 27 31 29 29 32 38
nan nan nan nan nan nan nan nan nan nan nan nan nan nan nan nan nan nan nan nan nan nan nan nan nan nan nan 221 258 257 225 223 197 162 95 80 24 348 337 342 351 345 345 340 323 286 277 274 271 278 273 223 196 210 215 227 223 219 217 198 181 192 195 191 188 185 181 178 167 160 153 146 140 150 159 205 243 324 349 357 347 357 344 345 351 355 353 353 358 4 12 17 26 22 24 27 33
nan nan nan nan nan nan nan nan nan nan nan nan nan nan nan nan nan nan nan nan nan nan nan nan nan nan nan nan nan 165 188 213 208 187 137 80 51 345 339 338 337 337 345 351 336 310 307 282 268 271 254 216 188 193 211 219 220 214 206 194 189 191 192 192 189 185 187 190 183 176 175 154 174 194 207 221 259 275 307 325 334 336 326 330 335 341 340 341 343 350 356 4 15 15 17 25 25
nan nan nan nan nan nan nan nan nan nan nan nan nan nan nan nan nan nan nan nan nan nan nan nan nan nan nan nan nan 154 167 205 233 241 108 69 342 342 335 342 344 344 349 349 342 316 287 275 278 279 260 241 182 198 213 220 223 213 201 194 190 188 185 181 187 192 201 205 195 192 194 198 185 203 226 236 263 293 301 323 328 332 328 322 335 332 333 331 329 338 346 349 357 358 10 18 20
nan nan nan nan nan nan nan nan nan nan nan nan nan nan nan nan nan nan nan nan nan nan nan nan nan nan nan nan nan 86 128 200 220 219 203 202 216 245 2 9 358 345 337 344 341 315 279 259 267 283 299 245 208 199 206 211 218 208 200 197 197 192 185 183 188 197 206 206 205 203 199 189 203 213 225 240 262 284 300 314 321 332 323 332 330 333 329 326 323 330 331 336 335 342 356 10 16
nan nan nan nan nan nan nan nan nan nan nan nan nan nan nan nan nan nan nan nan nan nan nan nan nan nan nan nan 329 356 171 206 233 236 225 232 264 7 30 10 355 341 325 329 336 312 300 281 274 272 250 218 208 203 208 209 209 208 205 204 201 197 191 189 194 202 203 204 208 205 196 204 206 221 227 250 263 288 306 320 321 328 332 328 330 336 328 329 324 327 324 324 327 331 346 2 10
nan nan nan nan nan nan nan nan nan nan nan nan nan nan nan nan nan nan nan nan nan nan nan nan nan nan nan nan 311 306 302 277 272 272 261 260 259 165 60 5 337 309 285 280 320 324 281 250 256 279 280 247 215 209 214 207 213 209 214 213 209 205 196 196 199 198 196 202 205 199 199 200 213 212 228 246 266 290 306 323 325 327 334 333 332 332 327 324 326 328 324 323 317 325 343 355 356
nan nan nan nan nan nan nan nan nan nan nan nan nan nan nan nan nan nan nan nan nan nan nan nan nan nan nan nan 297 298 291 292 298 304 284 265 245 206 228 276 268 277 278 303 327 300 258 245 238 248 252 237 230 212 208 216 216 214 217 213 212 208 205 206 202 196 197 203 201 198 200 209 209 209 227 239 269 281 298 316 323 330 333 336 330 330 324 321 329 332 332 316 321 329 342 354 346